[[{"header":{"parameterUnit":"m.s-1","parameterCategory":1,"la1":30.2991,"la2":30.254,"lo1":-89.0895,"lo2":-89.0444,"dy":0.0017,"dx":0.0017,"nx":28,"ny":28,"refTime":"2025-01-14T03:00:00:Z","depth":0,"parameterNumber":2,"parameterNumberName":"U-component_of_WINDS"},"data":[0,0,0,0,0,0,0,0,0,0,0,0,0,0,0,0,0,0,0,0,0,0,0,0,0,0,0,0,0,0,0,0,0,0,0,0,0,0,0,0,0,0,0,0,0,0,0,0,0,0,0,0,0,0,0,0,0,0,-2.6546,-2.6546,0,-2.6566,-2.6567,-2.6567,-2.6446,-2.6443,-2.6439,-2.6436,-2.6461,-2.6465,-2.6469,0,0,0,0,0,0,0,0,0,0,0,0,0,-2.6404,-2.6407,-2.6546,-2.6546,-2.6546,-2.6566,-2.6567,-2.6567,-2.6447,-2.6443,-2.6438,-2.6434,-2.646,-2.6464,-2.6469,0,0,0,0,0,0,0,0,0,0,0,0,0,-2.645,-2.6408,-2.6546,-2.6488,-2.6484,-2.6566,-2.6567,-2.6567,-2.6448,-2.6443,-2.6437,-2.6432,-2.6458,-2.6464,-2.647,-2.6609,0,0,-2.6488,-2.649,0,0,0,0,0,0,0,0,-2.6447,-2.6455,-2.6497,-2.6493,-2.6487,-2.6498,-2.6526,-2.6581,-2.6449,-2.6462,-2.6436,-2.643,-2.6478,-2.6482,-2.6497,-2.6611,-2.6612,-2.6488,-2.6492,-2.6494,-2.6496,0,0,0,0,0,0,0,-2.6444,-2.6453,-2.6554,-2.6497,-2.6492,-2.6463,-2.6463,-2.6536,-2.6499,-2.646,-2.6451,-2.6455,-2.6474,-2.6492,-2.6497,-2.6612,-2.6488,-2.6493,-2.6497,-2.6499,-2.6841,-2.6846,0,0,0,0,0,0,-2.6448,-2.6451,-2.6553,-2.6554,-2.6454,-2.6469,-2.647,-2.65,-2.6497,-2.6492,-2.646,-2.6449,-2.6484,-2.649,-2.6497,-2.6662,-2.6494,-2.6499,-2.6503,-2.6836,-2.6842,-2.6848,0,0,0,0,0,0,-2.6446,-2.6458,-2.6552,-2.6501,-2.651,-2.6477,-2.6512,-2.6503,-2.6521,-2.6497,-2.649,-2.6484,-2.6481,-2.6489,-2.6582,-2.6661,-2.6502,-2.6507,-2.6829,-2.6838,-2.6845,-2.6991,0,0,0,0,0,0,-2.6442,-2.6458,-2.6511,-2.6503,-2.6514,-2.6637,-2.6517,-2.6507,-2.6531,-2.6518,-2.6518,-2.6514,-2.6477,-2.6574,-2.6588,-2.6666,-2.6512,-2.6822,-2.6833,-2.6843,-2.6979,-2.7003,-2.7024,0,0,0,0,0,-2.6437,-2.6552,-2.6514,-2.6527,-2.6578,-2.6642,-2.6648,-2.6603,-2.6537,-2.659,-2.6575,-2.6514,-2.6649,-2.6585,-2.6599,-2.668,-2.6817,-2.683,-2.6842,-2.6969,-2.6999,-2.7024,0,0,0,0,0,0,-2.6571,-2.655,-2.6508,-2.6622,-2.6635,-2.6621,-2.6687,-2.6635,-2.6667,-2.6654,-2.6597,-2.6599,-2.6702,-2.6699,-2.6628,-2.6815,-2.6722,-2.6738,-2.6814,-2.6841,-2.6863,-2.6863,-2.6517,0,0,0,0,0,-2.6614,-2.6666,-2.6644,-2.6748,-2.6756,-2.6721,-2.6746,-2.671,-2.6721,-2.6726,-2.6717,-2.6731,-2.6777,-2.6808,-2.6849,-2.6977,-2.6976,-2.704,-2.7062,-2.7081,-2.7096,-2.7165,-2.7193,-2.689,-2.689,-2.6889,0,0,-2.6703,-2.6698,-2.6735,-2.6775,-2.678,-2.6837,-2.6726,-2.679,-2.6832,-2.6736,-2.6824,-2.6818,-2.6829,-2.6941,-2.699,-2.6942,-2.7179,-2.7097,-2.7112,-2.7117,-2.7181,-2.7209,-2.7235,-2.6898,-2.6897,-2.6895,0,0,-2.6895,-2.6895,-2.6982,-2.6989,-2.6998,-2.6973,-2.6994,-2.6987,-2.698,-2.7066,-2.6995,-2.7044,-2.7124,-2.7135,-2.7151,-2.7346,-2.7291,-2.736,-2.7479,-2.7546,-2.757,-2.7591,-2.7663,-2.7689,-2.7375,-2.7375,-2.7376,0,-2.7006,-2.7087,-2.7033,-2.7103,-2.7123,-2.7036,-2.7124,-2.7134,-2.7156,-2.7172,-2.7118,-2.7216,-2.7218,-2.7331,-2.7378,-2.7393,-2.7417,-2.7362,-2.7571,-2.7591,-2.761,-2.7678,-2.7704,-2.7384,-2.7383,-2.7382,-2.7381,0,-2.7223,-2.7281,-2.735,-2.7372,-2.7399,-2.7478,-2.7437,-2.7471,-2.7432,-2.7413,-2.7502,-2.75,-2.754,-2.7563,-2.7526,-2.7671,-2.7642,-2.758,-2.7486,-2.7649,-2.7711,-2.7736,-2.7396,-2.7393,-2.7391,-2.7388,0,0,-2.7504,-2.7493,-2.752,-2.7529,-2.7531,-2.7575,-2.7649,-2.7686,-2.7717,-2.7734,-2.7797,-2.7865,-2.7807,-2.7826,-2.7789,-2.7848,-2.8004,-2.7778,-2.7778,-2.7822,-2.8165,-2.8214,-2.8245,-2.7966,-2.797,-2.7974,-2.8165,0,-2.7693,-2.7819,-2.7772,-2.7901,-2.7954,-2.7872,-2.7936,-2.7945,-2.7929,-2.7972,-2.7954,-2.8004,-2.7924,-2.7935,-2.7989,-2.7973,-2.8072,-2.7958,-2.8025,-2.8028,-2.8028,-2.8277,-2.8328,-2.8509,-2.8189,-2.8193,-2.8196,0,-2.7931,-2.7957,-2.8092,-2.8085,-2.8105,-2.8164,-2.8194,-2.8236,-2.8244,-2.8228,-2.8248,-2.8198,-2.827,-2.8174,-2.8274,-2.8198,-2.8221,-2.8218,-2.8224,-2.8231,-2.8124,-2.8293,-2.8565,-2.8594,-2.8233,-2.823,-2.8228,0,-2.8125,-2.8194,-2.8283,-2.8293,-2.8286,-2.833,-2.8329,-2.8332,-2.8357,-2.8382,-2.8398,-2.8433,-2.8453,-2.8481,-2.8441,-2.8374,-2.8548,-2.8448,-2.8539,-2.854,-2.8582,-2.858,-2.8865,-2.8593,-2.8592,-2.8592,-2.8591,0,-2.8343,-2.843,-2.837,-2.8426,-2.852,-2.8464,-2.8559,-2.8549,-2.8552,-2.8605,-2.8535,-2.8586,-2.853,-2.8576,-2.8545,-2.8634,-2.8643,-2.8633,-2.8624,-2.8641,-2.8643,-2.8658,-2.8646,-2.8599,-2.8597,-2.8596,-2.8595,0,-2.8578,-2.8541,-2.8633,-2.8618,-2.8616,-2.8687,-2.8674,-2.8725,-2.8702,-2.877,-2.8783,-2.8749,-2.8799,-2.8761,-2.8812,-2.8791,-2.8908,-2.8881,-2.8906,-2.89,-2.8993,-2.8986,-2.93,-2.9339,-2.904,-2.9043,-2.9045,0,-2.8721,-2.8785,-2.8776,-2.8806,-2.8809,-2.8858,-2.8883,-2.883,-2.8859,-2.8872,-2.8922,-2.8966,-2.8999,-2.9083,-2.9063,-2.9101,-2.9076,-2.9183,-2.9081,-2.9096,-2.908,-2.9078,-2.9085,-2.9205,-2.9208,-2.9211,-2.9213,0,-2.898,-2.8958,-2.8995,-2.9027,-2.9058,-2.908,-2.9097,-2.9126,-2.9072,-2.9108,-2.9158,-2.9183,-2.9233,-2.9278,-2.9309,-2.9308,-2.9254,-2.9245,-2.9268,-2.9288,-2.9301,-2.9297,-2.8965,-2.9239,-2.9236,-2.9235,-2.9233,-2.9232,-2.9174,-2.9228,-2.923,-2.9274,-2.9281,-2.9298,-2.9345,-2.9328,-2.9368,-2.9404,-2.937,-2.9431,-2.9437,-2.9472,-2.9478,-2.9525,-2.9481,-2.9515,-2.9524,-2.9534,-2.9548,-2.929,-2.953,-2.9529,-2.9529,-2.9528,-2.9528,0,-2.9432,-2.9428,-2.9469,-2.9494,-2.9529,-2.9471,-2.9486,-2.952,-2.9574,-2.9583,-2.9616,-2.9674,-2.9717,-2.9699,-2.9737,-2.9779,-2.9754,-2.9791,-2.9789,-2.979,-2.9584,-2.9561,-2.981,-2.981,-2.981,-2.981,-2.981,-2.981,-2.957,-2.9657,-2.9636,-2.9726,-2.9722,-2.978,-2.9794,-2.9809,-2.9816,-2.9884,-2.9919,-2.9906,-2.9905,-2.9942,-2.9979,-2.9973,-2.9991,-3.0038,-3.0023,-2.9832,-2.9804,-2.9778,-2.9756,-3.0041,-3.0042,-3.0224,-3.0226,-3.0227]},{"header":{"parameterUnit":"m.s-1","parameterCategory":1,"la1":30.2991,"la2":30.254,"lo1":-89.0895,"lo2":-89.0444,"dy":0.0017,"dx":0.0017,"nx":28,"ny":28,"refTime":"2025-01-14T03:00:00:Z","depth":0,"parameterNumber":3,"parameterNumberName":"V-component_of_WINDS"},"data":[0,0,0,0,0,0,0,0,0,0,0,0,0,0,0,0,0,0,0,0,0,0,0,0,0,0,0,0,0,0,0,0,0,0,0,0,0,0,0,0,0,0,0,0,0,0,0,0,0,0,0,0,0,0,0,0,0,0,-3.3307,-3.3308,0,-3.3359,-3.336,-3.336,-3.3319,-3.3317,-3.3315,-3.3314,-3.3364,-3.3367,-3.337,0,0,0,0,0,0,0,0,0,0,0,0,0,-3.3168,-3.317,-3.3307,-3.3308,-3.3308,-3.3359,-3.336,-3.3361,-3.3319,-3.3317,-3.3315,-3.3313,-3.3363,-3.3367,-3.3371,0,0,0,0,0,0,0,0,0,0,0,0,0,-3.3225,-3.3171,-3.3307,-3.3294,-3.3293,-3.3359,-3.336,-3.3361,-3.332,-3.3317,-3.3314,-3.3312,-3.3362,-3.3367,-3.3371,-3.3452,0,0,-3.3385,-3.3387,0,0,0,0,0,0,0,0,-3.3222,-3.323,-3.3295,-3.3295,-3.3294,-3.333,-3.3329,-3.3391,-3.332,-3.3309,-3.3314,-3.331,-3.3355,-3.336,-3.3375,-3.3454,-3.3456,-3.3385,-3.3388,-3.339,-3.3391,0,0,0,0,0,0,0,-3.3218,-3.3227,-3.3328,-3.3296,-3.3295,-3.3284,-3.3289,-3.3341,-3.3346,-3.331,-3.3307,-3.3314,-3.3354,-3.3371,-3.3376,-3.3457,-3.3385,-3.3389,-3.3392,-3.3394,-3.3603,-3.3606,0,0,0,0,0,0,-3.3215,-3.3224,-3.3326,-3.3329,-3.3251,-3.3289,-3.3295,-3.3321,-3.3346,-3.3347,-3.3316,-3.3312,-3.3365,-3.3371,-3.3378,-3.3473,-3.339,-3.3394,-3.3397,-3.36,-3.3604,-3.3607,0,0,0,0,0,0,-3.3213,-3.3225,-3.3324,-3.3276,-3.3288,-3.3294,-3.3324,-3.3323,-3.334,-3.335,-3.3351,-3.3333,-3.3363,-3.3372,-3.3434,-3.3474,-3.3396,-3.34,-3.3597,-3.3602,-3.3606,-3.3665,0,0,0,0,0,0,-3.3209,-3.3224,-3.3256,-3.3277,-3.329,-3.338,-3.3327,-3.3326,-3.3349,-3.3343,-3.3366,-3.3367,-3.3361,-3.3427,-3.3438,-3.3479,-3.3404,-3.3593,-3.3599,-3.3604,-3.366,-3.3671,-3.3681,0,0,0,0,0,-3.3204,-3.327,-3.3258,-3.327,-3.333,-3.3382,-3.339,-3.3383,-3.3352,-3.3383,-3.3389,-3.3367,-3.3468,-3.3434,-3.3446,-3.3489,-3.3591,-3.3597,-3.3604,-3.3655,-3.3669,-3.3681,0,0,0,0,0,0,-3.3253,-3.3273,-3.3259,-3.3335,-3.3357,-3.3375,-3.3415,-3.3398,-3.3429,-3.3423,-3.3412,-3.3417,-3.3482,-3.3492,-3.3453,-3.3568,-3.3524,-3.3534,-3.3559,-3.3573,-3.3583,-3.3579,-3.3407,0,0,0,0,0,-3.3273,-3.3315,-3.3329,-3.3394,-3.3406,-3.3409,-3.3431,-3.3423,-3.3446,-3.3455,-3.3466,-3.3488,-3.3524,-3.3549,-3.3583,-3.3661,-3.3664,-3.3696,-3.3707,-3.3715,-3.3723,-3.3764,-3.3778,-3.3628,-3.3628,-3.3628,0,0,-3.3314,-3.333,-3.3357,-3.3404,-3.3421,-3.3463,-3.3417,-3.3464,-3.3495,-3.3462,-3.3521,-3.353,-3.3553,-3.3623,-3.3655,-3.3633,-3.3765,-3.3724,-3.373,-3.3734,-3.3772,-3.3786,-3.3798,-3.3633,-3.3632,-3.3631,0,0,-3.341,-3.3427,-3.3482,-3.35,-3.3526,-3.3527,-3.354,-3.3561,-3.3565,-3.3625,-3.3601,-3.3637,-3.3701,-3.3718,-3.3736,-3.3837,-3.3817,-3.3849,-3.3904,-3.3943,-3.3955,-3.3965,-3.4001,-3.4014,-3.3856,-3.3857,-3.3857,0,-3.3457,-3.3521,-3.3513,-3.3561,-3.3582,-3.3555,-3.3611,-3.3628,-3.3664,-3.3678,-3.3654,-3.3733,-3.3747,-3.382,-3.3844,-3.386,-3.3873,-3.3846,-3.3954,-3.3964,-3.3974,-3.4008,-3.4021,-3.386,-3.386,-3.3859,-3.3859,0,-3.3578,-3.3622,-3.3664,-3.3699,-3.3725,-3.3777,-3.3775,-3.3802,-3.3792,-3.3795,-3.3855,-3.3871,-3.3907,-3.3924,-3.3915,-3.3995,-3.3981,-3.3956,-3.3912,-3.3992,-3.4023,-3.4036,-3.3866,-3.3864,-3.3863,-3.3862,0,0,-3.3707,-3.3737,-3.3752,-3.3768,-3.3794,-3.3827,-3.3877,-3.3914,-3.3936,-3.3961,-3.4002,-3.4056,-3.4032,-3.4052,-3.4044,-3.4079,-3.4157,-3.4049,-3.4049,-3.4068,-3.4246,-3.4265,-3.428,-3.4144,-3.4146,-3.4148,-3.4244,0,-3.3804,-3.3892,-3.3885,-3.3967,-3.4007,-3.3982,-3.4025,-3.4045,-3.4049,-3.4082,-3.4086,-3.4124,-3.4091,-3.4102,-3.4135,-3.4141,-3.4193,-3.4134,-3.418,-3.4182,-3.4175,-3.4296,-3.4317,-3.4406,-3.4256,-3.4258,-3.426,0,-3.3929,-3.3959,-3.4045,-3.4065,-3.4081,-3.412,-3.4152,-3.4185,-3.4207,-3.4207,-3.4229,-3.4215,-3.4263,-3.4218,-3.4285,-3.4245,-3.4263,-3.4268,-3.4272,-3.4275,-3.4226,-3.4303,-3.4435,-3.4448,-3.4279,-3.4277,-3.4276,0,-3.4014,-3.4075,-3.4135,-3.4149,-3.4173,-3.4201,-3.4212,-3.4231,-3.4253,-3.4281,-3.4295,-3.4327,-3.4345,-3.4371,-3.4365,-3.4333,-3.4432,-3.4387,-3.4433,-3.4433,-3.4455,-3.4454,-3.4591,-3.4468,-3.4467,-3.4467,-3.4467,0,-3.4122,-3.4176,-3.4173,-3.421,-3.4269,-3.426,-3.4318,-3.4326,-3.4343,-3.4379,-3.4359,-3.4393,-3.4384,-3.4418,-3.4414,-3.4468,-3.4477,-3.4477,-3.4476,-3.4479,-3.4479,-3.4491,-3.4484,-3.4471,-3.447,-3.4469,-3.4469,0,-3.4227,-3.4228,-3.4291,-3.4308,-3.4314,-3.4356,-3.437,-3.4404,-3.4406,-3.4453,-3.4463,-3.4466,-3.4504,-3.4501,-3.4545,-3.4542,-3.4609,-3.46,-3.4603,-3.46,-3.4646,-3.4641,-3.4796,-3.4815,-3.4679,-3.4681,-3.4682,0,-3.4296,-3.4337,-3.4359,-3.4383,-3.4396,-3.4434,-3.4456,-3.4448,-3.4472,-3.4499,-3.4529,-3.4566,-3.4595,-3.4658,-3.4663,-3.4696,-3.4687,-3.4739,-3.4692,-3.4694,-3.4687,-3.4684,-3.4688,-3.4748,-3.4749,-3.4751,-3.4752,0,-3.4419,-3.4417,-3.4451,-3.4484,-3.4512,-3.4538,-3.4561,-3.4581,-3.4575,-3.4603,-3.4643,-3.4665,-3.4709,-3.4746,-3.4777,-3.4787,-3.4768,-3.4766,-3.4778,-3.4783,-3.4782,-3.4782,-3.4627,-3.4763,-3.4762,-3.4761,-3.476,-3.476,-3.4508,-3.4542,-3.4563,-3.4601,-3.4618,-3.464,-3.4673,-3.4678,-3.4712,-3.4748,-3.4741,-3.4785,-3.4804,-3.4843,-3.4856,-3.489,-3.4871,-3.4889,-3.4893,-3.4898,-3.4903,-3.4777,-3.4895,-3.4895,-3.4895,-3.4894,-3.4894,0,-3.4629,-3.4641,-3.4676,-3.4709,-3.4739,-3.4719,-3.4744,-3.4769,-3.4809,-3.4829,-3.4858,-3.4902,-3.4937,-3.4945,-3.4978,-3.5003,-3.4996,-3.5012,-3.501,-3.5012,-3.4918,-3.4904,-3.5018,-3.5018,-3.5018,-3.5018,-3.5018,-3.5018,-3.4695,-3.4753,-3.4753,-3.4818,-3.4829,-3.4873,-3.4889,-3.4908,-3.4924,-3.4975,-3.5004,-3.5009,-3.5024,-3.5058,-3.5088,-3.5089,-3.5102,-3.5122,-3.512,-3.5032,-3.5019,-3.5007,-3.4994,-3.5125,-3.5126,-3.5212,-3.5213,-3.5213]}]]